This is the latest recevied weather packets stored in our database for station/object N3SBK. If no packets are shown the sender has not sent any weather packets the latest 10 day(s).
| Time | Temp. | Humidity | Pressure | Rain* | Wind** | Luminosity | Snow |
|---|---|---|---|---|---|---|---|
| 1788117202 | 25° C | 72% | 1012.7 hPa | 0 mm | - | 70 W/m² | - |
| 1788116898 | 25° C | 71% | 1012.6 hPa | 0 mm | - | 62 W/m² | - |
| 1788116598 | 25.56° C | 69% | 1012.7 hPa | 0 mm | - | 42 W/m² | - |
| 1788116296 | 26.11° C | 66% | 1012.7 hPa | 0 mm | - | 43 W/m² | - |
| 1788115992 | 26.67° C | 66% | 1012.7 hPa | 0 mm | - | 48 W/m² | - |
| 1788115687 | 26.67° C | 63% | 1012.7 hPa | 0 mm | - | 51 W/m² | - |
| 1788115386 | 27.22° C | 61% | 1012.9 hPa | 0 mm | - | 70 W/m² | - |
| 1788115082 | 28.33° C | 59% | 1012.7 hPa | 0 mm | - | 95 W/m² | - |
| 1788114782 | 28.89° C | 58% | 1012.6 hPa | 0 mm | - | 119 W/m² | - |
| 1788114477 | 29.44° C | 55% | 1012.9 hPa | 0 mm | - | 327 W/m² | - |
| 1788114173 | 28.89° C | 61% | 1012.7 hPa | 0 mm | - | 590 W/m² | - |
| 1788113869 | 27.78° C | 58% | 1012.7 hPa | 0 mm | - | 671 W/m² | - |
| 1788113564 | 28.33° C | 57% | 1012.9 hPa | 0 mm | - | 160 W/m² | - |
| 1788113263 | 28.33° C | 56% | 1013 hPa | 0 mm | - | 182 W/m² | - |
| 1788112958 | 28.89° C | 56% | 1012.9 hPa | 0 mm | - | 584 W/m² | - |
| 1788112657 | 28.33° C | 55% | 1013.1 hPa | 0 mm | - | 640 W/m² | - |
| 1788112353 | 28.89° C | 59% | 1013.1 hPa | 0 mm | - | 685 W/m² | - |
| 1788112052 | 28.89° C | 59% | 1013.2 hPa | 0 mm | - | 515 W/m² | - |
| 1788111749 | 27.78° C | 64% | 1013.3 hPa | 0 mm | - | 360 W/m² | - |
| 1788111448 | 28.33° C | 59% | 1013.5 hPa | 0 mm | - | 115 W/m² | - |
| 1788111143 | 27.78° C | 61% | 1013.4 hPa | 0 mm | - | 742 W/m² | - |
| 1788110840 | 28.33° C | 59% | 1013.6 hPa | 0 mm | - | 574 W/m² | - |
| 1788110537 | 28.33° C | 62% | 1013.6 hPa | 0 mm | - | 665 W/m² | - |
| 1788110232 | 28.33° C | 62% | 1013.4 hPa | 0 mm | - | 437 W/m² | - |
| 1788109927 | 27.78° C | 67% | 1013.6 hPa | 0 mm | - | 681 W/m² | - |
* Rain latest hour (hover to see other rain measurements)
** Current wind speed in m/s (hover to see current wind gust speed)